Regional Weather Roundup
Issued by NWS

Home | Current Version | Previous Version | Graphics & Text | Print | Product List | Glossary On
Versions: 1 2 3 4 5 6 7 8 9 10 11 12 13 14 15 16 17 18 19 20 21 22 23 24 25 26 27 28 29 30 31 32 33 34 35 36 37 38 39 40 41 42 43 44 45 46 47 48 49 50
408
ASUS43 KLSX 070757
RWRMO

WEATHER SUMMARY FOR MISSOURI
NATIONAL WEATHER SERVICE SPRINGFIELD MO
200 AM CST WED DEC 07 2016

NOTE: "FAIR" INDICATES FEW OR NO CLOUDS BELOW 12,000 FEET WITH NO
       SIGNIFICANT WEATHER AND/OR OBSTRUCTIONS TO VISIBILITY.
       CURRENT SKY AND/OR WEATHER CONDITIONS ARE NOT AVAILABLE FOR
       CHILLICOTHE AND FARMINGTON.

MOZ001>031-035>038-043-044-053-054-070900-
...NORTHERN AND WESTERN MISSOURI...

CITY           SKY/WX    TMP DP  RH WIND       PRES   REMARKS
KANSAS CTY INT CLOUDY    30  14  51 N7        30.18R WCI  23
ST JOSEPH      CLOUDY    29  15  56 N10       30.19R WCI  20
CHILLICOTHE      N/A     30  13  49 NW7       30.18R WCI  23

$$
MOZ066>068-077>081-088>096-101>105-070900-
...SOUTHWEST MISSOURI...

CITY           SKY/WX    TMP DP  RH WIND       PRES   REMARKS
SPRINGFIELD    CLEAR     27  18  69 N5        30.13R WCI  22

$$
MOZ032>034-039>042-045>050-055>058-069>072-070900-
...CENTRAL MISSOURI...

CITY           SKY/WX    TMP DP  RH WIND       PRES   REMARKS
COLUMBIA       NOT AVBL
JEFFERSON CITY CLOUDY    27  21  78 CALM      30.18R
ROLLA          PTCLDY    27  18  69 NW6       30.13R WCI  20
SEDALIA        CLOUDY    32  17  54 NW7       30.18R WCI  26
WARRENSBURG    CLOUDY    30  21  69 CALM      30.17S

$$
MOZ051-052-059>065-070900-
...EAST CENTRAL MISSOURI...

CITY           SKY/WX    TMP DP  RH WIND       PRES   REMARKS
ST LOUIS INTL  CLOUDY    32  18  56 NW5       30.14R WCI  27

$$
MOZ072>076-082>087-097>100-106>115-070900-
...SOUTH CENTRAL AND SOUTHEAST MISSOURI...

CITY           SKY/WX    TMP DP  RH WIND       PRES   REMARKS
CAPE GIRARDEAU CLOUDY    36  27  69 N8        30.16R WCI  30
POPLAR BLUFF   PTCLDY    35  30  82 N8        30.15R WCI  29
WEST PLAINS    CLEAR     31  18  58 N6        30.12R WCI  25

$$



USA.gov is the U.S. government's official web portal to all federal, state and local government web resources and services.